This demonstration page uses our WeatherBlox Daily Observations layout. Learn more.

Left ArrowRight Arrow

Hourly Observations for March 31, 2020

Temp ( °F °C ) Dew Point ( °F °C ) Humidity (%) Winds ( mph kmh ) Pressure ( in mb ) Visibility ( mi km ) Precip ( " mm )
12:54 am 00:54 Cloudy 56 13.3 35 1.7 46 46 S 7 11 30.09 1019 10 16.0934 0 0
1:54 am 01:54 Cloudy 54 12.2 35 1.7 49 49 E 6 9 30.06 1018 10 16.0934 0 0
2:54 am 02:54 Mostly Clear 53 11.7 35 1.7 51 51 SE 7 11 30.06 1018 10 16.0934 0 0
3:54 am 03:54 Clear 51 10.6 36 2.2 56 56 ESE 3 6 30.06 1018 10 16.0934 0 0
4:54 am 04:54 Mostly Clear 50 10 36 2.2 59 59 Calm 30.05 1018 10 16.0934 0 0
5:54 am 05:54 Clear 45 7.2 35 1.7 68 68 Calm 30.05 1018 10 16.0934 0 0
6:54 am 06:54 Clear 47 8.3 37 2.8 69 69 SW 3 6 30.06 1018 10 16.0934 0 0
7:54 am 07:54 Mostly Sunny 46 7.8 38 3.3 73 73 Calm 30.07 1018 10 16.0934 0 0
8:54 am 08:54 Mostly Sunny 51 10.6 42 5.6 71 71 W 6 9 30.06 1018 10 16.0934 0 0
9:54 am 09:54 Mostly Sunny 55 12.8 44 6.7 67 67 WSW 9 15 30.05 1018 10 16.0934 0 0
10:54 am 10:54 Mostly Cloudy 58 14.4 44 6.7 60 60 W 9 15 30.05 1018 10 16.0934 0 0
11:54 am 11:54 Mostly Cloudy 62 16.7 42 5.6 48 48 WSW 8 13 30.03 1017 10 16.0934 0 0
12:54 pm 12:54 Cloudy 63 17.2 42 5.6 47 47 SW 12 19 30.01 1016 10 16.0934 0 0
1:54 pm 13:54 Sunny 66 18.9 42 5.6 42 42 SSW 9 15 29.97 1015 10 16.0934 0 0
2:54 pm 14:54 Mostly Sunny 68 20 41 5 38 38 S 13 20 29.94 1014 10 16.0934 0 0
3:54 pm 15:54 Mostly Sunny 69 20.6 40 4.4 35 35 SSW 14 22 29.91 1013 10 16.0934 0 0
4:54 pm 16:54 Partly Cloudy 71 21.7 39 3.9 31 31 SW 15 24 29.88 1012 10 16.0934 0 0
5:54 pm 17:54 Partly Cloudy 70 21.1 40 4.4 34 34 S 13 20 29.88 1012 10 16.0934 0 0
6:54 pm 18:54 Sunny 67 19.4 39 3.9 36 36 S 12 19 29.87 1012 10 16.0934 0 0
7:54 pm 19:54 Mostly Clear 58 14.4 40 4.4 51 51 S 9 15 29.88 1012 10 16.0934 0 0
8:54 pm 20:54 Partly Cloudy 57 13.9 40 4.4 53 53 S 10 17 29.87 1012 10 16.0934 0 0
9:54 pm 21:54 Clear 56 13.3 40 4.4 55 55 S 10 17 29.87 1011 10 16.0934 0 0
10:54 pm 22:54 Clear 58 14.4 41 5 53 53 S 13 20 29.85 1011 10 16.0934 0 0
11:54 pm 23:54 Clear 56 13.3 41 5 57 57 S 12 19 29.85 1011 10 16.0934 0 0

Powered by AerisWeather